Location: D�nning
(49.2479°N, 12.8491°E)
Time: 23:00:03
(UTC+00:00)

NOSS 2-2 (C) - Pass Details

Date: 18 September 2020
Orbit: 468 x 1740 km, 63.3° (Epoch: 19 October)

Event Time Altitude Azimuth Distance (km) Brightness Sun altitude
Rises 18:15:37 0° 199° (SSW) 2,506 6.7 -10.7°
Reaches altitude 10° 18:17:47 10° 190° (S) 1,623 5.7 -11.0°
Maximum altitude 18:21:00 36° 122° (ESE) 784 3.6 -11.5°
Drops below altitude 10° 18:24:34 10° 55° (NE) 1,792 5.6 -12.1°
Sets 18:27:03 0° 47° (NE) 2,815 6.6 -12.5°
